FENGYUN 1C DEB, 30028

Orbit data source: Space-Track

FENGYUN 1C DEB, 30028 is space debris in SSO originally from a launch on Mon, 10 May 1999 UTC launched from the Taiyaun Space Center, China (TSC). Fengyun 1C debris stems from the Chinese weather satellite Fengyun-1C, which was intentionally destroyed by a Chinese anti-satellite missile in 2007. This event dramatically increased the amount of space debris, with thousands of trackable fragments posing hazards to satellites and human spaceflight. The Fengyun 1C debris cloud has become a focal point in discussions about space sustainability and the need for international regulations to prevent the creation of new debris.

Loading next visibility...
Identifier
30028, 1999-025ND
Orbit
SSO
Country
Flag of CNCN / PRC
Related business
Manufacturer
Unknown
Mission
Spacecraft
Bus & Motor
Unknown
Mass
Unknown
Launch date (UTC)
1999-05-10 (27 years ago)
Launch vehicle
Unknown
Launch site
Taiyaun Space Center, China (TSC)
Object type
Payload
Rocket body
Debris
Shape & HBR
Unknown shape, 0.1 m
Radar Cross Section
Medium (>0.1 m² and <1 m²)

Expand to show TLE details & history
Last TLE update: 19 hours ago

TLE from 19 hours ago
0 FENGYUN 1C DEB
1 30028U 99025ND  26237.59235124  .00001012  00000-0  19510-3 0  9992
2 30028  98.1616 229.1956 0173000 153.7382 304.2487 14.56570332 34450
Epoch: 2026-08-25T14:12Z
TLE epoch observation values (Epoch: 2026-08-25T14:12:59.147Z)
Latitude
79.73545°
Longitude
-85.93997°
Altitude
650.086 km
Speed
7.575 km/s
True Right ascension
06h 44m 39s
True Declination
79° 40' 27"
Sunlit
Object was in daylight at epoch
Visualization orbit readout
Latitude
Unknown
Longitude
Unknown
Altitude
Unknown
Speed
Unknown
Apparent Right ascension
Unknown
Apparent Declination
Unknown
Sunlit
N/A
Visualization observer readout
Local Sidereal Time
00:05:19
Azimuth
Unknown
Elevation
Unknown
Doppler factor
Unknown
Orbital elements
Apogee altitude
823.828 km
Perigee altitude
578.877 km
Semi-major axis
7,079.49 km
Eccentricity
0.0173
Inclination
98.1616°
RAAN
229.1956°
Arg. of periapsis
153.7382°
True anomaly
302.59007°
Mean anomaly
304.2487°
Eccentric anomaly
303.42139°
Mean motion
3.64368 °/min
Orbital period
98.8 mins
BSTAR
0.0001951
Loading maneuver chart data...
Computing Atmospheric mass density...
Loading historical data...
Loading historical data...
Loading historical data...
Loading historical data...
Loading historical data...
Loading historical data...
Loading historical data...

Documentation

Showing up to 5 results
|